KZR991 UAAA-UACC

Flight info

Callsign KZR991
Flight time 1h 31m
Altitude 38000
Route ETEDA1B ETEDA W333 BANOS BANOS1G
Aircraft A21N/M-SDE2E3FGHIRWXY/LB1

Departure

Time 2026-05-07 17:53
Airport Almaty International Airport (UAAA)

Arrival

Time 2026-05-07 19:24
Airport Nursultan Nazarbayev International Airport (UACC)
Time Latitude Longitude Altitude Speed Heading
2026-05-07 17:45 43.34685 77.01324 2251 ft 0 kts 245°
2026-05-07 17:45 43.34685 77.01326 2251 ft 1 kts 247°
2026-05-07 17:45 43.34693 77.01343 2251 ft 2 kts 241°
2026-05-07 17:46 43.34699 77.01362 2251 ft 2 kts 248°
2026-05-07 17:46 43.34705 77.01381 2251 ft 1 kts 244°
2026-05-07 17:46 43.34710 77.01393 2251 ft 2 kts 236°
2026-05-07 17:46 43.34721 77.01405 2251 ft 2 kts 196°
2026-05-07 17:47 43.34736 77.01407 2251 ft 1 kts 163°
2026-05-07 17:47 43.34742 77.01403 2251 ft 1 kts 150°
2026-05-07 17:47 43.34746 77.01401 2251 ft 0 kts 154°
2026-05-07 17:49 43.34744 77.01402 2251 ft 0 kts 154°
2026-05-07 17:49 43.34736 77.01407 2251 ft 1 kts 158°
2026-05-07 17:50 43.34711 77.01420 2251 ft 5 kts 159°
2026-05-07 17:50 43.34664 77.01447 2251 ft 8 kts 157°
2026-05-07 17:50 43.34606 77.01466 2251 ft 9 kts 173°
2026-05-07 17:50 43.34541 77.01492 2252 ft 9 kts 155°
2026-05-07 17:51 43.34477 77.01531 2252 ft 10 kts 156°
2026-05-07 17:51 43.34407 77.01575 2252 ft 11 kts 154°
2026-05-07 17:51 43.34335 77.01621 2252 ft 11 kts 155°
2026-05-07 17:51 43.34259 77.01669 2252 ft 12 kts 155°
2026-05-07 17:52 43.34184 77.01723 2252 ft 12 kts 140°
2026-05-07 17:52 43.34163 77.01821 2252 ft 7 kts 68°
2026-05-07 17:52 43.34181 77.01864 2252 ft 0 kts 57°
2026-05-07 17:52 43.34297 77.02104 2252 ft 66 kts 56°
2026-05-07 17:53 43.34690 77.02896 2253 ft 130 kts 56°
2026-05-07 17:53 43.35286 77.04117 2309 ft 173 kts 57°
2026-05-07 17:53 43.35978 77.05512 2807 ft 180 kts 56°
2026-05-07 17:53 43.36695 77.06901 3458 ft 183 kts 51°
2026-05-07 17:54 43.37738 77.07790 4080 ft 182 kts
2026-05-07 17:54 43.38991 77.07430 4392 ft 195 kts 335°
2026-05-07 17:54 43.40272 77.06583 4698 ft 210 kts 335°
2026-05-07 17:54 43.41658 77.05734 5003 ft 226 kts 336°
2026-05-07 17:55 43.43153 77.04861 5249 ft 247 kts 337°
2026-05-07 17:55 43.44818 77.03912 5623 ft 263 kts 338°
2026-05-07 17:55 43.46514 77.02957 6196 ft 268 kts 338°
2026-05-07 17:55 43.48239 77.01991 6767 ft 270 kts 338°
2026-05-07 17:56 43.49988 77.01013 7407 ft 272 kts 338°
2026-05-07 17:56 43.51717 77.00047 8128 ft 273 kts 338°
2026-05-07 17:56 43.53488 76.99061 8795 ft 273 kts 338°
2026-05-07 17:56 43.55239 76.98086 9499 ft 275 kts 338°
2026-05-07 17:57 43.56994 76.97110 10172 ft 277 kts 337°
2026-05-07 17:57 43.58196 76.96439 10614 ft 278 kts 337°
2026-05-07 17:57 43.60599 76.95099 11490 ft 280 kts 337°
2026-05-07 17:57 43.62394 76.94094 12164 ft 281 kts 337°
2026-05-07 17:58 43.64191 76.93088 12797 ft 283 kts 337°
2026-05-07 17:58 43.66029 76.92059 13412 ft 285 kts 337°
2026-05-07 17:58 43.67851 76.91039 14024 ft 287 kts 336°
2026-05-07 17:58 43.69712 76.89996 14644 ft 289 kts 336°
2026-05-07 17:59 43.71569 76.88955 15219 ft 291 kts 336°
2026-05-07 17:59 43.73445 76.87903 15790 ft 294 kts 336°
2026-05-07 17:59 43.75346 76.86835 16361 ft 296 kts 336°
2026-05-07 17:59 43.77235 76.85774 16928 ft 297 kts 336°
2026-05-07 18:00 43.79178 76.84683 17507 ft 299 kts 336°
2026-05-07 18:00 43.81108 76.83596 18037 ft 301 kts 336°
2026-05-07 18:00 43.83034 76.82512 18541 ft 304 kts 336°
2026-05-07 18:00 43.85001 76.81403 19046 ft 306 kts 336°
2026-05-07 18:01 43.86982 76.80286 19559 ft 309 kts 336°
2026-05-07 18:01 43.88985 76.79156 20039 ft 311 kts 336°
2026-05-07 18:01 43.90983 76.78028 20505 ft 314 kts 336°
2026-05-07 18:01 43.93000 76.76887 20988 ft 315 kts 336°
2026-05-07 18:02 43.97097 76.74571 21888 ft 321 kts 336°
2026-05-07 18:02 43.99179 76.73392 22097 ft 331 kts 336°
2026-05-07 18:02 44.01355 76.72157 22311 ft 341 kts 336°
2026-05-07 18:03 44.03580 76.70896 22516 ft 351 kts 336°
2026-05-07 18:03 44.05847 76.69609 22740 ft 360 kts 336°
2026-05-07 18:03 44.08203 76.68270 23126 ft 365 kts 336°
2026-05-07 18:03 44.10528 76.66948 23585 ft 367 kts 336°
2026-05-07 18:04 44.12906 76.65595 24043 ft 369 kts 336°
2026-05-07 18:04 44.15279 76.64243 24472 ft 371 kts 336°
2026-05-07 18:04 44.17682 76.62873 24898 ft 373 kts 336°
2026-05-07 18:04 44.20068 76.61510 25298 ft 375 kts 336°
2026-05-07 18:05 44.22484 76.60130 25690 ft 378 kts 336°
2026-05-07 18:05 44.24905 76.58746 26080 ft 379 kts 336°
2026-05-07 18:05 44.27377 76.57330 26473 ft 381 kts 336°
2026-05-07 18:05 44.29815 76.55933 26843 ft 383 kts 336°
2026-05-07 18:06 44.32300 76.54507 27195 ft 386 kts 336°
2026-05-07 18:06 44.34750 76.53101 27544 ft 387 kts 336°
2026-05-07 18:06 44.37243 76.51656 27896 ft 389 kts 336°
2026-05-07 18:06 44.39752 76.50195 28244 ft 391 kts 336°
2026-05-07 18:07 44.42267 76.48727 28592 ft 393 kts 336°
2026-05-07 18:07 44.44785 76.47257 28926 ft 395 kts 336°
2026-05-07 18:07 44.47310 76.45781 29266 ft 396 kts 336°
2026-05-07 18:07 44.49855 76.44292 29586 ft 398 kts 336°
2026-05-07 18:08 44.52431 76.42783 29909 ft 400 kts 336°
2026-05-07 18:08 44.55007 76.41273 30225 ft 402 kts 336°
2026-05-07 18:08 44.57580 76.39763 30538 ft 403 kts 336°
2026-05-07 18:08 44.60153 76.38251 30848 ft 405 kts 336°
2026-05-07 18:09 44.62780 76.36707 31147 ft 407 kts 336°
2026-05-07 18:09 44.65372 76.35182 31436 ft 408 kts 336°
2026-05-07 18:09 44.67997 76.33634 31728 ft 410 kts 335°
2026-05-07 18:09 44.70625 76.32084 32038 ft 411 kts 335°
2026-05-07 18:10 44.73242 76.30537 32340 ft 412 kts 335°
2026-05-07 18:10 44.75903 76.28964 32641 ft 413 kts 335°
2026-05-07 18:10 44.78545 76.27402 32924 ft 414 kts 335°
2026-05-07 18:10 44.81198 76.25831 33194 ft 416 kts 335°
2026-05-07 18:11 44.83846 76.24261 33523 ft 415 kts 335°
2026-05-07 18:11 44.85634 76.23199 33800 ft 414 kts 335°
2026-05-07 18:11 44.89155 76.21109 34301 ft 411 kts 335°
2026-05-07 18:11 44.91770 76.19554 34592 ft 410 kts 335°
2026-05-07 18:12 44.94379 76.18001 34890 ft 408 kts 335°
2026-05-07 18:12 44.96965 76.16461 35162 ft 407 kts 335°
2026-05-07 18:12 44.99594 76.14890 35398 ft 407 kts 335°
2026-05-07 18:12 45.02179 76.13346 35605 ft 407 kts 335°
2026-05-07 18:13 45.04770 76.11797 35814 ft 407 kts 335°
2026-05-07 18:13 45.07373 76.10238 36029 ft 407 kts 335°
2026-05-07 18:13 45.09991 76.08671 36272 ft 407 kts 335°
2026-05-07 18:13 45.12601 76.07106 36515 ft 407 kts 335°
2026-05-07 18:14 45.15179 76.05559 36766 ft 407 kts 335°
2026-05-07 18:14 45.17790 76.03991 37020 ft 407 kts 335°
2026-05-07 18:14 45.20381 76.02434 37245 ft 407 kts 335°
2026-05-07 18:14 45.23000 76.00857 37455 ft 408 kts 335°
2026-05-07 18:15 45.25628 75.99274 37623 ft 409 kts 335°
2026-05-07 18:15 45.28240 75.97699 37764 ft 410 kts 335°
2026-05-07 18:15 45.30851 75.96123 37916 ft 411 kts 335°
2026-05-07 18:16 45.36136 75.92926 37983 ft 412 kts 335°
2026-05-07 18:16 45.41370 75.89754 37985 ft 412 kts 335°
2026-05-07 18:17 45.46632 75.86560 37984 ft 411 kts 335°
2026-05-07 18:17 45.51894 75.83356 37981 ft 411 kts 334°
2026-05-07 18:18 45.57155 75.80149 37982 ft 411 kts 334°
2026-05-07 18:18 45.62371 75.76960 37983 ft 411 kts 334°
2026-05-07 18:19 45.67651 75.73722 37978 ft 411 kts 334°
2026-05-07 18:19 45.72900 75.70502 37982 ft 411 kts 334°
2026-05-07 18:20 45.78103 75.67315 37980 ft 411 kts 334°
2026-05-07 18:20 45.83357 75.64087 37980 ft 412 kts 334°
2026-05-07 18:21 45.88627 75.60841 37979 ft 412 kts 334°
2026-05-07 18:21 45.93876 75.57595 37975 ft 412 kts 334°
2026-05-07 18:22 45.99128 75.54343 37973 ft 412 kts 334°
2026-05-07 18:22 46.04378 75.51084 37974 ft 412 kts 334°
2026-05-07 18:23 46.09642 75.47808 37976 ft 412 kts 334°
2026-05-07 18:23 46.14880 75.44539 37979 ft 412 kts 334°
2026-05-07 18:24 46.20119 75.41264 37978 ft 413 kts 334°
2026-05-07 18:24 46.25364 75.37997 37975 ft 413 kts 334°
2026-05-07 18:25 46.30669 75.34712 37976 ft 414 kts 333°
2026-05-07 18:25 46.35926 75.31441 37974 ft 414 kts 333°
2026-05-07 18:26 46.41206 75.28149 37978 ft 414 kts 333°
2026-05-07 18:26 46.46475 75.24854 37974 ft 414 kts 333°
2026-05-07 18:27 46.51739 75.21553 37972 ft 415 kts 333°
2026-05-07 18:27 46.57047 75.18218 37971 ft 415 kts 333°
2026-05-07 18:28 46.62329 75.14893 37974 ft 414 kts 333°
2026-05-07 18:28 46.67598 75.11565 37980 ft 414 kts 333°
2026-05-07 18:29 46.72869 75.08232 37978 ft 415 kts 333°
2026-05-07 18:29 46.78122 75.04899 37972 ft 415 kts 333°
2026-05-07 18:30 46.83421 75.01530 37972 ft 416 kts 333°
2026-05-07 18:30 46.88747 74.98192 37979 ft 417 kts 335°
2026-05-07 18:31 46.94132 74.95205 37990 ft 418 kts 336°
2026-05-07 18:31 46.99598 74.92213 38002 ft 417 kts 336°
2026-05-07 18:32 47.04997 74.89240 38006 ft 418 kts 335°
2026-05-07 18:32 47.10426 74.86237 38003 ft 418 kts 335°
2026-05-07 18:33 47.15863 74.83225 38001 ft 419 kts 335°
2026-05-07 18:33 47.21297 74.80205 37996 ft 420 kts 335°
2026-05-07 18:34 47.26733 74.77176 38003 ft 419 kts 335°
2026-05-07 18:34 47.32153 74.74150 38010 ft 419 kts 335°
2026-05-07 18:35 47.37582 74.71111 38011 ft 419 kts 335°
2026-05-07 18:35 47.43015 74.68062 38017 ft 419 kts 335°
2026-05-07 18:36 47.48455 74.65001 38023 ft 420 kts 335°
2026-05-07 18:36 47.53907 74.61931 38024 ft 420 kts 335°
2026-05-07 18:37 47.59396 74.58862 38024 ft 421 kts 335°
2026-05-07 18:37 47.64833 74.55820 38026 ft 421 kts 335°
2026-05-07 18:38 47.70287 74.52760 38029 ft 421 kts 335°
2026-05-07 18:38 47.75765 74.49671 38032 ft 422 kts 335°
2026-05-07 18:39 47.81226 74.46589 38027 ft 422 kts 335°
2026-05-07 18:39 47.86704 74.43488 38023 ft 422 kts 335°
2026-05-07 18:40 47.92171 74.40383 38021 ft 422 kts 335°
2026-05-07 18:40 47.97672 74.37256 38025 ft 423 kts 335°
2026-05-07 18:41 48.03162 74.34123 38028 ft 423 kts 334°
2026-05-07 18:41 48.08619 74.31003 38033 ft 423 kts 334°
2026-05-07 18:42 48.14112 74.27857 38034 ft 423 kts 334°
2026-05-07 18:42 48.19608 74.24760 38037 ft 424 kts 334°
2026-05-07 18:43 48.25122 74.21644 38043 ft 424 kts 334°
2026-05-07 18:43 48.30612 74.18528 38049 ft 424 kts 334°
2026-05-07 18:44 48.36111 74.15398 38045 ft 425 kts 334°
2026-05-07 18:44 48.41625 74.12254 38046 ft 425 kts 334°
2026-05-07 18:45 48.47139 74.09098 38043 ft 425 kts 334°
2026-05-07 18:45 48.52662 74.05933 38046 ft 424 kts 334°
2026-05-07 18:46 48.58150 74.02779 38047 ft 424 kts 334°
2026-05-07 18:46 48.63637 73.99616 38034 ft 425 kts 334°
2026-05-07 18:47 48.69135 73.96444 38035 ft 425 kts 334°
2026-05-07 18:47 48.74675 73.93235 38024 ft 425 kts 334°
2026-05-07 18:48 48.80184 73.90040 38036 ft 425 kts 334°
2026-05-07 18:48 48.85663 73.86850 38034 ft 425 kts 334°
2026-05-07 18:49 48.91185 73.83626 38036 ft 425 kts 334°
2026-05-07 18:49 48.96662 73.80425 38037 ft 425 kts 334°
2026-05-07 18:50 49.01829 73.76350 38033 ft 416 kts 320°
2026-05-07 18:50 49.06383 73.70921 38034 ft 415 kts 317°
2026-05-07 18:51 49.10868 73.65443 38027 ft 415 kts 317°
2026-05-07 18:51 49.15345 73.59978 38025 ft 415 kts 317°
2026-05-07 18:52 49.19876 73.54466 38018 ft 415 kts 317°
2026-05-07 18:52 49.24380 73.48978 38009 ft 415 kts 317°
2026-05-07 18:53 49.28879 73.43478 38008 ft 416 kts 317°
2026-05-07 18:53 49.33363 73.37986 38009 ft 416 kts 317°
2026-05-07 18:54 49.37882 73.32439 37998 ft 415 kts 317°
2026-05-07 18:54 49.42381 73.26901 38000 ft 416 kts 317°
2026-05-07 18:55 49.46878 73.21352 37803 ft 417 kts 317°
2026-05-07 18:55 49.49116 73.18589 37547 ft 413 kts 317°
2026-05-07 18:55 49.51340 73.15839 37282 ft 410 kts 316°
2026-05-07 18:55 49.53547 73.13107 37005 ft 407 kts 316°
2026-05-07 18:56 49.55744 73.10381 36708 ft 405 kts 316°
2026-05-07 18:56 49.57906 73.07697 36346 ft 405 kts 316°
2026-05-07 18:56 49.60090 73.04979 35927 ft 404 kts 316°
2026-05-07 18:56 49.62265 73.02270 35428 ft 406 kts 316°
2026-05-07 18:57 49.64476 72.99513 34829 ft 407 kts 316°
2026-05-07 18:57 49.66661 72.96787 34238 ft 409 kts 316°
2026-05-07 18:57 49.68857 72.94043 33537 ft 411 kts 316°
2026-05-07 18:57 49.71090 72.91246 32848 ft 411 kts 316°
2026-05-07 18:58 49.73270 72.88517 32426 ft 405 kts 316°
2026-05-07 18:58 49.75446 72.85795 32014 ft 399 kts 316°
2026-05-07 18:58 49.77561 72.83141 31591 ft 394 kts 316°
2026-05-07 18:58 49.79682 72.80476 31153 ft 390 kts 315°
2026-05-07 18:59 49.81753 72.77870 30736 ft 385 kts 316°
2026-05-07 18:59 49.83814 72.75273 30283 ft 382 kts 315°
2026-05-07 18:59 49.85875 72.72669 29840 ft 378 kts 316°
2026-05-07 18:59 49.87881 72.70134 29372 ft 375 kts 316°
2026-05-07 19:00 49.89882 72.67601 28905 ft 372 kts 316°
2026-05-07 19:00 49.91895 72.65051 28423 ft 370 kts 316°
2026-05-07 19:00 49.93877 72.62539 27956 ft 368 kts 316°
2026-05-07 19:00 49.95829 72.60062 27502 ft 365 kts 316°
2026-05-07 19:01 49.97782 72.57578 27049 ft 363 kts 316°
2026-05-07 19:01 49.99718 72.55115 26583 ft 361 kts 316°
2026-05-07 19:01 50.01639 72.52671 26133 ft 359 kts 316°
2026-05-07 19:01 50.03554 72.50230 25686 ft 357 kts 316°
2026-05-07 19:02 50.05469 72.47789 25235 ft 355 kts 316°
2026-05-07 19:02 50.07361 72.45372 24779 ft 353 kts 317°
2026-05-07 19:02 50.09264 72.42939 24316 ft 351 kts 317°
2026-05-07 19:02 50.11130 72.40550 23873 ft 349 kts 317°
2026-05-07 19:03 50.12989 72.38166 23428 ft 347 kts 317°
2026-05-07 19:03 50.14845 72.35786 22981 ft 345 kts 317°
2026-05-07 19:03 50.16557 72.33587 22581 ft 344 kts 316°
2026-05-07 19:03 50.18370 72.31256 22161 ft 342 kts 317°
2026-05-07 19:04 50.20202 72.28887 21738 ft 339 kts 315°
2026-05-07 19:04 50.21915 72.26365 21306 ft 336 kts 311°
2026-05-07 19:04 50.23455 72.23685 20892 ft 332 kts 307°
2026-05-07 19:04 50.24867 72.20880 20474 ft 330 kts 305°
2026-05-07 19:05 50.26261 72.18031 20059 ft 328 kts 305°
2026-05-07 19:05 50.27630 72.15225 19653 ft 326 kts 305°
2026-05-07 19:05 50.29005 72.12406 19242 ft 324 kts 305°
2026-05-07 19:05 50.30350 72.09649 18834 ft 322 kts 305°
2026-05-07 19:06 50.31713 72.06855 18421 ft 320 kts 305°
2026-05-07 19:06 50.34387 72.01370 17605 ft 317 kts 306°
2026-05-07 19:06 50.35720 71.98636 17195 ft 316 kts 305°
2026-05-07 19:07 50.37037 71.95933 16785 ft 315 kts 306°
2026-05-07 19:07 50.38354 71.93227 16376 ft 314 kts 306°
2026-05-07 19:07 50.39673 71.90512 15966 ft 312 kts 306°
2026-05-07 19:07 50.40993 71.87788 15554 ft 311 kts 306°
2026-05-07 19:08 50.42279 71.85135 15154 ft 310 kts 306°
2026-05-07 19:08 50.43591 71.82426 14746 ft 309 kts 305°
2026-05-07 19:08 50.44625 71.79562 14302 ft 306 kts 287°
2026-05-07 19:08 50.44848 71.76288 13995 ft 301 kts 265°
2026-05-07 19:09 50.44264 71.73166 13973 ft 299 kts 244°
2026-05-07 19:09 50.43047 71.70561 13980 ft 299 kts 231°
2026-05-07 19:09 50.41659 71.68109 13976 ft 299 kts 231°
2026-05-07 19:09 50.40379 71.65575 13968 ft 296 kts 239°
2026-05-07 19:10 50.39405 71.62784 13967 ft 293 kts 249°
2026-05-07 19:10 50.38701 71.59821 13966 ft 291 kts 253°
2026-05-07 19:10 50.38059 71.56802 13968 ft 290 kts 253°
2026-05-07 19:10 50.37433 71.53820 13972 ft 289 kts 254°
2026-05-07 19:11 50.36950 71.50776 13974 ft 287 kts 262°
2026-05-07 19:11 50.36792 71.47687 13974 ft 286 kts 271°
2026-05-07 19:11 50.36898 71.44573 13973 ft 286 kts 275°
2026-05-07 19:11 50.37256 71.41516 13955 ft 286 kts 292°
2026-05-07 19:12 50.38356 71.38933 13971 ft 290 kts 314°
2026-05-07 19:12 50.40042 71.37215 13897 ft 298 kts 335°
2026-05-07 19:12 50.42116 71.36675 13430 ft 307 kts
2026-05-07 19:12 50.44206 71.37394 13000 ft 310 kts 13°
2026-05-07 19:13 50.46260 71.38364 12580 ft 309 kts 14°
2026-05-07 19:13 50.48304 71.39330 12181 ft 308 kts 14°
2026-05-07 19:13 50.50349 71.40280 11779 ft 307 kts 13°
2026-05-07 19:13 50.52380 71.41212 11391 ft 305 kts 13°
2026-05-07 19:14 50.54404 71.42133 11006 ft 303 kts 13°
2026-05-07 19:14 50.56412 71.43044 10621 ft 302 kts 13°
2026-05-07 19:14 50.58418 71.43954 10247 ft 300 kts 13°
2026-05-07 19:14 50.60439 71.44416 9851 ft 291 kts 351°
2026-05-07 19:15 50.62266 71.43335 9469 ft 279 kts 321°
2026-05-07 19:15 50.63564 71.41131 9102 ft 273 kts 304°
2026-05-07 19:15 50.64652 71.38718 8742 ft 271 kts 304°
2026-05-07 19:15 50.65755 71.36308 8379 ft 270 kts 304°
2026-05-07 19:16 50.66898 71.34000 8009 ft 270 kts 311°
2026-05-07 19:16 50.68343 71.32128 7666 ft 270 kts 325°
2026-05-07 19:16 50.69974 71.30701 7332 ft 269 kts 330°
2026-05-07 19:16 50.71650 71.29346 6993 ft 267 kts 330°
2026-05-07 19:17 50.73299 71.28021 6655 ft 266 kts 330°
2026-05-07 19:17 50.74944 71.26690 6312 ft 264 kts 330°
2026-05-07 19:17 50.76557 71.25373 5979 ft 262 kts 330°
2026-05-07 19:17 50.78169 71.24051 5650 ft 260 kts 330°
2026-05-07 19:18 50.79768 71.22736 5327 ft 259 kts 331°
2026-05-07 19:18 50.81360 71.21426 5091 ft 252 kts 331°
2026-05-07 19:18 50.82869 71.20199 5067 ft 237 kts 334°
2026-05-07 19:18 50.84427 71.19717 5044 ft 232 kts
2026-05-07 19:19 50.85847 71.20837 4910 ft 228 kts 41°
2026-05-07 19:19 50.86927 71.22534 4799 ft 215 kts 44°
2026-05-07 19:19 50.87949 71.24205 4576 ft 206 kts 44°
2026-05-07 19:19 50.88926 71.25784 4397 ft 194 kts 44°
2026-05-07 19:20 50.89851 71.27256 4187 ft 185 kts 43°
2026-05-07 19:20 50.90720 71.28622 3975 ft 167 kts 43°
2026-05-07 19:20 50.91504 71.29848 3732 ft 151 kts 43°
2026-05-07 19:20 50.92214 71.30955 3524 ft 142 kts 43°
2026-05-07 19:21 50.92915 71.32045 3357 ft 141 kts 43°
2026-05-07 19:21 50.93613 71.33131 3187 ft 140 kts 43°
2026-05-07 19:21 50.94304 71.34206 3017 ft 140 kts 44°
2026-05-07 19:21 50.95002 71.35295 2843 ft 140 kts 44°
2026-05-07 19:22 50.95695 71.36375 2663 ft 140 kts 44°
2026-05-07 19:22 50.96381 71.37447 2481 ft 139 kts 44°
2026-05-07 19:22 50.97068 71.38519 2293 ft 139 kts 44°
2026-05-07 19:22 50.97761 71.39600 2105 ft 139 kts 44°
2026-05-07 19:23 50.98446 71.40670 1921 ft 139 kts 44°
2026-05-07 19:23 50.99135 71.41746 1738 ft 139 kts 44°
2026-05-07 19:23 50.99820 71.42814 1559 ft 138 kts 44°
2026-05-07 19:23 51.00504 71.43882 1387 ft 138 kts 44°
2026-05-07 19:24 51.01186 71.44940 1207 ft 136 kts 44°
2026-05-07 19:24 51.01800 71.45896 1174 ft 112 kts 45°
2026-05-07 19:24 51.02095 71.46369 1174 ft 82 kts 46°
2026-05-07 19:24 51.02378 71.46810 1174 ft 28 kts 41°
2026-05-07 19:25 51.02501 71.46939 1174 ft 19 kts 338°
2026-05-07 19:25 51.02580 71.46832 1174 ft 14 kts 313°
2026-05-07 19:25 51.02648 71.46717 1174 ft 14 kts 314°
2026-05-07 19:25 51.02702 71.46586 1174 ft 14 kts 265°
2026-05-07 19:26 51.02647 71.46469 1174 ft 7 kts 233°
2026-05-07 19:26 51.02627 71.46386 1174 ft 8 kts 262°
2026-05-07 19:26 51.02611 71.46291 1174 ft 9 kts 234°
2026-05-07 19:26 51.02598 71.46209 1174 ft 7 kts 286°
2026-05-07 19:27 51.02620 71.46169 1174 ft 2 kts 322°
2026-05-07 19:27 51.02627 71.46162 1174 ft 0 kts 322°